TimePDT,TemperatureF,Dew PointF,Humidity,Sea Level PressureIn,VisibilityMPH,Wind Direction,Wind SpeedMPH,Gust SpeedMPH,PrecipitationIn,Events,Conditions,WindDirDegrees,DateUTC
1:53 AM,28.0,21.0,75,30.04,10.0,Calm,Calm,-,N/A,,Clear,0,2012-10-09 08:53:00
2:53 AM,25.0,19.9,81,30.05,10.0,Calm,Calm,-,N/A,,Clear,0,2012-10-09 09:53:00
3:53 AM,28.9,19.9,69,30.04,10.0,Calm,Calm,-,N/A,,Clear,0,2012-10-09 10:53:00
4:53 AM,23.0,19.0,85,30.07,10.0,Calm,Calm,-,N/A,,Clear,0,2012-10-09 11:53:00
5:53 AM,23.0,18.0,81,30.09,10.0,Calm,Calm,-,N/A,,Clear,0,2012-10-09 12:53:00
6:53 AM,28.0,19.0,69,30.12,10.0,Calm,Calm,-,N/A,,Clear,0,2012-10-09 13:53:00
7:53 AM,28.9,21.9,75,30.14,9.0,Calm,Calm,-,N/A,,Clear,0,2012-10-09 14:53:00
8:53 AM,41.0,23.0,49,30.12,10.0,Calm,Calm,-,N/A,,Clear,0,2012-10-09 15:53:00
9:53 AM,52.0,25.0,35,30.12,10.0,Calm,Calm,-,N/A,,Clear,0,2012-10-09 16:53:00
10:53 AM,57.0,21.9,26,30.10,10.0,WSW,3.5,-,N/A,,Clear,250,2012-10-09 17:53:00
11:53 AM,61.0,24.1,24,30.10,9.0,Variable,3.5,-,N/A,,Clear,0,2012-10-09 18:53:00
12:53 PM,66.0,27.0,23,30.07,3.0,Variable,4.6,-,N/A,,Haze,0,2012-10-09 19:53:00
1:53 PM,70.0,30.9,24,30.04,10.0,NW,11.5,-,N/A,,Clear,310,2012-10-09 20:53:00
2:53 PM,70.0,30.9,24,30.04,10.0,NNW,5.8,-,N/A,,Clear,340,2012-10-09 21:53:00
3:53 PM,70.0,28.0,21,30.02,10.0,NW,9.2,-,N/A,,Clear,320,2012-10-09 22:53:00
4:53 PM,69.1,28.9,22,30.03,10.0,NNW,11.5,-,N/A,,Clear,340,2012-10-09 23:53:00
5:53 PM,63.0,30.0,29,30.04,10.0,NNW,10.4,-,N/A,,Clear,340,2012-10-10 00:53:00
6:53 PM,53.1,30.9,43,30.06,10.0,WNW,9.2,-,N/A,,Clear,300,2012-10-10 01:53:00
7:53 PM,51.1,30.9,46,30.08,10.0,NW,6.9,-,N/A,,Clear,320,2012-10-10 02:53:00
8:53 PM,45.0,32.0,60,30.07,10.0,SSW,4.6,-,N/A,,Clear,210,2012-10-10 03:53:00
9:53 PM,39.9,28.9,65,30.07,10.0,Calm,Calm,-,N/A,,Clear,0,2012-10-10 04:53:00
10:53 PM,50.0,32.0,50,30.03,10.0,WNW,4.6,-,N/A,,Clear,290,2012-10-10 05:53:00
11:53 PM,39.9,28.9,65,30.04,10.0,South,4.6,-,N/A,,Clear,180,2012-10-10 06:53:00